Weather in Gombe

Nigeria     10°17′42″N   11°10′11″E
В апреле 2022 года жителям России запретили посещать сайт meteo.paraplan.net по решению Генеральной прокуратуры. Аудитория сайта уменьшилась в 10 раз. Владельцы сайта не видят смысла в поддержке погодного сервера в таких условиях. Сайт будет закрыт в октябре.
temp.,
°C
wind,
m/s
gust,
m/s
humid.,
%
clouds,
%
prec.,
mm/h
press.,
hPa
HPBL,
m
25 september, sun
sun2501:00+24wsw338274 0.1 101059
04:00+23wsw2384100 0.3 101053
07:00+24sw248485 0.4 1012111
10:00+28s3366100 0.0 1012640
13:00+31se2454100 0.0 10091309
16:00+30ene4455100 0.0 10071162
19:00+27sse22698 0.0 100812
22:00+26sw117158 0.1 101011
26 september, mon
mon2601:00+25s227629 0.1 100918
04:00+24s227988 0.0 100915
07:00+25sw237881 0.0 101181
10:00+29ssw556328 0.0 1012790
13:00+31ssw445688 0.0 10091369
16:00+31sw225693 0.3 10081027
19:00+26sw477747 1.3 1009162
22:00+25ssw4983100 0.6 1011205
27 september, tue
tue2701:00+24sw4984100 0.6 1010256
04:00+23sw51088100 0.0 1009284
07:00+23sw51189100 0.2 1011342
10:00+26ssw7878100 0.0 1013700
13:00+30sw5563100 0.0 10101007
16:00+28s4470100 0.0 1009511
19:00+24s3787100 2.3 1010171
22:00+21sse4993100 20.1 1014410
28 september, wed
wed2801:00+21sw3889100 24.9 1011191
04:00+21sw3887100 0.1 1011252
07:00+22w2386100 0.2 1012105
10:00+24ssw4578100 0.1 1013351
13:00+27sw4469100 0.1 1011583
16:00+29sw12615 0.0 1009943
19:00+26w227436 0.2 101022
22:00+23wsw48885 0.3 1011230
29 september, thu
thu2901:00+22sw5119319 1.4 1012321
04:00+21sw5129273 0.4 1012381
07:00+21sw71492100 0.6 1013443
10:00+23sse478671 0.0 1015632
13:00+28s556651 0.0 1011959
16:00+26ssw5571100 0.0 1010874
19:00+23sw388418 0.5 1012222
22:00+23sw6118651 0.9 1012341